Tracking 30923 objects as of 1-Jul-2025
HD Live streaming from Space Station
objects crossing your sky now

FENGYUN 1C DEB

Track FENGYUN 1C DEB now!
10-day predictions


NORAD ID: 33684
Int'l Code: 1999-025DFV
Perigee: 457.8 km
Apogee: 886.0 km
Inclination: 99.1 °
Period: 98.0 minutes
Semi major axis: 7042 km
RCS: 0.0093 m2 (small)
Launch date: May 10, 1999
Source: People's Republic of China (PRC)
Launch site: Taiyaun Space Center, China (TSC)

Note: This is SATELLITE DEBRIS
Your satellite tracking list
Your tracking list is empty




NASA's NSSDC Master Catalog

Two Line Element Set (TLE):
1 33684U 99025DFV 25179.82224026  .00008147  00000-0  68829-3 0  9995
2 33684  99.0862 216.2107 0303954 137.3860 225.1363 14.68846881905359
Source of the keplerian elements: AFSPC